カタログに戻る

OPS 4682 DEB

運用中PO
NORAD 55262·DEBRIS·🇺🇸 United States

打ち上げ Apr 3, 1965 から Vandenberg Space Force Base

Loading…

次のパス (今後24時間)

TLE

最新Source: Space-Track

元期: Sep 11, 2026, 07:19 UTC

1 55262U 65027HN  26254.30527802  .00000237  00000-0  80428-3 0  9993
2 55262  90.2553  13.5432 0028277 267.8960  91.8922 12.96352811514063

AllMySatでOPS 4682 DEBをリアルタイム追跡

Download on the App Store